Sitka, Alaska, United States (99835)
Lat: 57.05N, Lon: 135.33W
Wx Zone: AKZ023
Local Info
Past Weather Observations for Friday, July 25, 2014

NOTE: This archive is for the closest National Weather Service station to Sitka. Information may differ from the station used for current weather conditions.

Click here for Long-term Archive

Time Weather Temperature Dewpoint Humidity Pressure Winds Precip Visibility
23:53
Overcast
Light Rain
55°F / 13°C 54°F / 12°C 94% 29.89 in
(1012 mb)
Calm 0.01 in
(0.25 mm)
10SM
23:35
Overcast
55°F / 13°C 54°F / 12°C 94% 29.89 in
(1012 mb)
SW 4.6 mph
(SW 7 kph)
0.01 in
(0.25 mm)
10SM
22:53
Overcast
Light Rain
55°F / 13°C 55°F / 13°C 100% 29.89 in
(1012 mb)
Calm 0.01 in
(0.25 mm)
9SM
21:53
Overcast
Light Rain
55°F / 13°C 55°F / 13°C 100% 29.92 in
(1013 mb)
Calm 0.02 in
(0.51 mm)
10SM
20:53
Overcast
Light Rain
55°F / 13°C 55°F / 13°C 100% 29.92 in
(1013 mb)
Calm 0.02 in
(0.51 mm)
8SM
19:53
Overcast
Light Rain
55°F / 13°C 54°F / 12°C 94% 29.89 in
(1012 mb)
Calm 0.08 in
(2.03 mm)
6SM
19:22
Overcast
Light Rain
55°F / 13°C 54°F / 12°C 94% 29.89 in
(1012 mb)
Calm 0.04 in
(1.02 mm)
5SM
19:13
Overcast
Rain
55°F / 13°C 54°F / 12°C 94% 29.89 in
(1012 mb)
SW 4.6 mph
(SW 7 kph)
0.04 in
(1.02 mm)
2 1/2SM
18:53
Overcast
Light Rain
55°F / 13°C 54°F / 12°C 94% 29.89 in
(1012 mb)
SW 6.9 mph
(SW 11 kph)
0.04 in
(1.02 mm)
4SM
17:53
Overcast
Light Rain
55°F / 13°C 55°F / 13°C 100% 29.89 in
(1012 mb)
SSE 8.1 mph
(SSE 13 kph)
0.04 in
(1.02 mm)
3SM
16:53
Overcast
Light Rain
55°F / 13°C 55°F / 13°C 100% 29.89 in
(1012 mb)
S 5.8 mph
(S 9 kph)
0.02 in
(0.51 mm)
5SM
15:53
Overcast
57°F / 14°C 54°F / 12°C 88% 29.86 in
(1011 mb)
S 6.9 mph
(S 11 kph)
0.01 in
(0.25 mm)
10SM
14:53
Overcast
Light Rain
55°F / 13°C 54°F / 12°C 94% 29.86 in
(1011 mb)
SSE 9.2 mph
(SSE 15 kph)
0.01 in
(0.25 mm)
8SM
13:53
Overcast
Light Rain
55°F / 13°C 54°F / 12°C 94% 29.83 in
(1010 mb)
S 6.9 mph
(S 11 kph)
0.02 in
(0.51 mm)
9SM
12:53
Overcast
Light Rain
55°F / 13°C 54°F / 12°C 94% 29.83 in
(1010 mb)
SE 10.4 mph
(SE 17 kph)
0.01 in
(0.25 mm)
7SM
11:53
Overcast
Light Rain
57°F / 14°C 52°F / 11°C 82% 29.83 in
(1010 mb)
SE 12.7 mph
(SE 20 kph)
0.03 in
(0.76 mm)
7SM
10:53
Overcast
Light Rain
55°F / 13°C 52°F / 11°C 88% 29.83 in
(1010 mb)
ESE 8.1 mph
(ESE 13 kph)
0.04 in
(1.02 mm)
9SM
09:53
Overcast
Light Rain
54°F / 12°C 52°F / 11°C 94% 29.86 in
(1011 mb)
E 4.6 mph
(E 7 kph)
0.03 in
(0.76 mm)
8SM
08:53
Overcast
Light Rain
54°F / 12°C 52°F / 11°C 94% 29.86 in
(1011 mb)
Calm 0.02 in
(0.51 mm)
10SM
07:53
Overcast
Light Rain
54°F / 12°C 52°F / 11°C 94% 29.86 in
(1011 mb)
Calm 0.01 in
(0.25 mm)
10SM
06:53
Overcast
Light Rain
54°F / 12°C 52°F / 11°C 94% 29.89 in
(1012 mb)
N 3.5 mph
(N 6 kph)
0.03 in
(0.76 mm)
7SM
05:53
Overcast
Light Rain
54°F / 12°C 52°F / 11°C 94% 29.89 in
(1012 mb)
ENE 3.5 mph
(ENE 6 kph)
0.03 in
(0.76 mm)
9SM
04:53
Overcast
Light Rain
54°F / 12°C 52°F / 11°C 94% 29.89 in
(1012 mb)
E 3.5 mph
(E 6 kph)
0.02 in
(0.51 mm)
10SM
03:53
Overcast
Light Rain
54°F / 12°C 52°F / 11°C 94% 29.89 in
(1012 mb)
ENE 3.5 mph
(ENE 6 kph)
0.02 in
(0.51 mm)
10SM
03:12
Overcast
Light Rain
54°F / 12°C 52°F / 11°C 94% 29.89 in
(1012 mb)
NNW 4.6 mph
(NNW 7 kph)
0.01 in
(0.25 mm)
10SM
02:53
Overcast
Light Rain
54°F / 12°C 52°F / 11°C 94% 29.89 in
(1012 mb)
Calm 0.02 in
(0.51 mm)
9SM
01:53
Overcast
54°F / 12°C 52°F / 11°C 94% 29.89 in
(1012 mb)
Calm 0.00 in
(0.00 mm)
10SM
00:53
Overcast
55°F / 13°C 52°F / 11°C 88% 29.92 in
(1013 mb)
Calm - 10SM
Time Weather Temperature Dewpoint Humidity Pressure Winds Precip Visibility


Weather for websites

WeatherForYou.com, LLC is not responsible for any damages or problems caused by this service. Current weather conditions are obtained from the closest station including government and personal stations which may have varying degrees of accuracy. Weather forecasts are derived from the NOAA NDFD. Like all things, this site belongs to Jesus Christ... He just trusts me to maintain it. If you have any questions or comments email webmaster@weatherforyou.com

Copyright © 2014, WeatherForYou.com LLC. All rights reserved.